Location: Casilda
(33.0440°S, 61.1680°W)
Time: 15:56:00
(UTC-03:00)

ISS - Pass Details

Date: 23 September 2022
Orbit: 414 x 417 km, 51.6° (Epoch: 24 September)

Event Time Altitude Azimuth Distance (km) Brightness Sun altitude
Exits shadow 05:24:03 47° 210° (SSW) 571 -3.3 -19.3°
Drops below altitude 10° 05:27:11 10° 145° (SE) 1,512 -0.3 -18.6°
Sets 05:29:21 0° 139° (SE) 2,382 1.0 -18.2°
